This is the latest recevied weather packets stored in our database for station/object DM1HF-13. If no packets are shown the sender has not sent any weather packets the latest 1 day(s).
| Time | Temp. | Humidity | Pressure | Rain* | Wind** | Luminosity | Snow |
|---|---|---|---|---|---|---|---|
| 1777989916 | 20° C | 65% | 1009.6 hPa | 0 mm | 1.34 m/s, 344° | 249 W/m² | - |
| 1777989616 | 19.44° C | 64% | 1009.6 hPa | 0 mm | 0.89 m/s, 36° | 232 W/m² | - |
| 1777989316 | 20° C | 64% | 1009.8 hPa | 0 mm | 1.79 m/s, 335° | 220 W/m² | - |
| 1777989016 | 20° C | 65% | 1009.7 hPa | 0 mm | 0.89 m/s, 271° | 198 W/m² | - |
| 1777988716 | 19.44° C | 64% | 1009.8 hPa | 0 mm | 1.34 m/s, 255° | 190 W/m² | - |
| 1777988416 | 20° C | 62% | 1009.9 hPa | 0 mm | 0.89 m/s, 146° | 212 W/m² | - |
| 1777988116 | 19.44° C | 65% | 1009.8 hPa | 0 mm | 0.89 m/s, 269° | 201 W/m² | - |
| 1777987816 | 19.44° C | 63% | 1009.8 hPa | 0 mm | 1.79 m/s, 345° | 179 W/m² | - |
| 1777987516 | 19.44° C | 63% | 1009.9 hPa | 0 mm | 1.34 m/s, 302° | 173 W/m² | - |
| 1777987216 | 19.44° C | 65% | 1009.9 hPa | 0 mm | 0.89 m/s, 280° | 189 W/m² | - |
| 1777986916 | 20° C | 64% | 1009.9 hPa | 0 mm | 1.34 m/s, 291° | 213 W/m² | - |
| 1777986616 | 20° C | 66% | 1010.1 hPa | 0 mm | 0.45 m/s, 235° | 217 W/m² | - |
| 1777986316 | 20° C | 65% | 1010 hPa | 0 mm | 0.45 m/s, 322° | 203 W/m² | - |
| 1777986016 | 19.44° C | 63% | 1010 hPa | 0 mm | 1.34 m/s, 277° | 180 W/m² | - |
| 1777985716 | 20° C | 65% | 1010.1 hPa | 0 mm | 0.45 m/s, 344° | 169 W/m² | - |
| 1777985417 | 20° C | 64% | 1010.2 hPa | 0 mm | 1.34 m/s, 321° | 168 W/m² | - |
| 1777985116 | 20° C | 63% | 1010.2 hPa | 0 mm | 1.79 m/s, 352° | 220 W/m² | - |
| 1777984816 | 20.56° C | 61% | 1010.2 hPa | 0 mm | 1.79 m/s, 337° | 341 W/m² | - |
| 1777984516 | 20.56° C | 63% | 1010.3 hPa | 0 mm | 0.45 m/s, 17° | 225 W/m² | - |
| 1777984216 | 20° C | 63% | 1010.3 hPa | 0 mm | 0.89 m/s, 301° | 233 W/m² | - |
| 1777983916 | 20° C | 61% | 1010.4 hPa | 0 mm | 0.45 m/s, 191° | 341 W/m² | - |
| 1777983616 | 19.44° C | 66% | 1010.4 hPa | 0 mm | 0.45 m/s, 164° | 249 W/m² | - |
| 1777983316 | 19.44° C | 68% | 1010.4 hPa | 0 mm | 0.45 m/s, 253° | 220 W/m² | - |
| 1777983016 | 18.89° C | 70% | 1010.4 hPa | 0 mm | 2.24 m/s, 318° | 272 W/m² | - |
| 1777982716 | 18.89° C | 71% | 1010.4 hPa | 0 mm | 0.45 m/s, 327° | 352 W/m² | - |
* Rain latest hour (hover to see other rain measurements)
** Current wind speed in m/s (hover to see current wind gust speed)